GFSSGP_con_mlcape_036.txt.gz
CAPE
0 0 0 0 0 0 0 0 0 33 540 545 628 736 683 930 696 236 147 146 612 693 597 413 234 143 185 214 81 30 17 0 0 0 0 0 0 0 0 0 0 0 0 0 0 0 0 0 0
0 0 0 0 0 0 0 0 0 436 599 669 472 746 658 808 923 532 265 394 571 666 554 395 181 135 212 146 65 23 18 3 0 0 0 1 4 1 0 0 0 0 0 0 0 0 0 0 0
0 0 0 0 0 0 0 374 549 629 338 326 229 39 430 902 875 504 194 394 527 533 420 357 168 209 223 82 71 38 30 9 4 16 18 18 14 11 1 5 5 0 0 0 0 0 0 0 0
0 0 0 0 0 0 0 3 252 461 311 226 21 71 191 447 1013 722 62 84 286 445 362 153 134 261 176 92 36 25 34 24 34 41 33 29 17 11 5 9 2 0 0 0 0 0 0 0 0
0 0 0 0 0 0 2 22 54 394 248 257 13 4 103 798 540 215 24 51 169 326 116 82 133 153 98 85 57 49 46 42 62 60 50 36 15 5 0 0 0 0 0 0 0 0 0 0 0
0 0 0 0 0 0 252 225 242 222 156 66 3 24 237 627 397 319 251 254 265 115 104 96 77 49 53 124 95 31 30 40 54 52 37 13 0 0 0 0 0 0 0 0 0 0 0 0 0
0 0 0 0 0 0 212 237 169 186 105 48 0 77 413 376 387 235 56 63 75 66 64 71 34 23 115 72 6 1 0 3 10 2 0 0 0 0 0 0 0 0 0 0 0 0 0 0 0
0 0 0 0 0 0 291 177 109 108 13 2 129 180 289 56 35 13 4 5 42 0 0 0 58 50 2 0 0 0 2 3 0 0 0 0 0 0 0 0 0 0 0 0 0 0 0 0 0
0 0 0 0 0 76 224 189 70 8 102 10 336 272 197 15 20 6 5 1 2 22 7 0 4 20 21 36 1 0 0 0 0 0 0 0 0 0 0 0 0 0 0 0 0 0 0 0 0
0 0 0 0 22 50 40 46 13 1 33 199 236 110 4 14 15 15 9 2 0 6 28 0 3 41 60 17 0 0 0 0 0 0 0 0 0 0 0 0 0 0 0 0 0 0 0 0 0
0 0 0 0 30 0 0 0 0 0 0 95 230 75 0 15 11 8 1 0 0 1 1 8 88 47 2 0 0 0 0 0 0 0 0 0 0 1 0 0 0 0 0 0 0 0 0 0 0
0 0 0 20 81 16 5 0 34 28 8 156 99 0 1 7 0 1 29 18 2 0 0 7 51 28 0 0 0 0 0 0 2 25 81 99 22 0 0 0 0 0 0 0 0 0 0 0 0
0 0 1 54 15 21 2 0 0 0 52 240 58 22 18 3 3 24 44 8 0 0 9 42 55 39 0 0 0 0 0 25 128 91 32 0 0 0 0 0 0 0 0 0 0 0 0 0 0
0 0 10 17 5 2 37 0 6 6 29 288 397 127 49 41 6 7 15 18 0 0 7 50 134 71 0 0 3 28 148 91 8 63 6 0 0 0 0 0 0 0 0 0 0 0 0 0 0
4 0 38 81 52 96 13 20 35 45 33 244 242 291 183 114 97 70 9 0 8 11 43 150 214 13 5 5 8 74 2 0 0 0 0 0 0 0 0 0 0 0 0 0 0 0 0 0 0
0 0 0 132 73 20 0 13 55 113 149 437 466 517 485 399 291 168 195 96 125 191 242 151 112 13 14 11 12 0 0 0 0 0 0 0 0 0 0 0 0 0 0 0 0 0 0 0 0
1 0 0 39 19 13 0 1 128 233 471 352 637 644 417 517 627 476 364 412 406 354 195 90 77 39 50 0 0 0 0 0 0 0 0 0 0 0 0 0 0 0 0 0 0 0 0 0 0
28 0 0 0 6 0 0 0 21 235 666 591 594 253 280 519 606 482 515 481 372 259 43 79 86 50 0 0 0 0 0 0 0 0 0 0 0 0 0 0 0 0 0 0 0 0 0 0 0
5 0 0 0 0 14 7 0 0 315 639 641 331 40 123 387 493 455 352 346 318 92 12 68 62 28 0 0 0 0 0 0 0 0 0 0 0 0 0 0 0 0 0 0 0 0 0 0 0
7 0 0 0 0 0 5 3 0 233 346 456 193 29 46 82 82 208 193 167 180 88 50 9 48 21 0 0 0 0 0 0 0 0 0 0 0 0 0 0 0 0 0 0 0 0 0 0 0
0 0 0 0 0 0 0 0 0 1 85 192 101 77 11 30 43 42 156 119 41 92 92 52 64 29 0 0 0 0 0 0 0 0 0 0 0 0 0 0 0 0 0 0 0 0 0 0 0
0 0 0 0 0 0 0 0 0 0 0 177 179 151 100 15 12 28 182 148 86 117 149 209 150 41 0 0 18 0 0 0 0 0 0 0 0 0 0 0 0 0 0 0 0 0 0 0 0
0 0 0 0 0 0 0 0 0 0 0 0 196 173 159 98 51 160 169 178 146 115 200 229 297 194 88 4 16 0 0 0 0 0 0 0 0 0 0 0 0 0 0 0 0 0 0 0 0
0 0 0 0 2 0 0 0 0 0 0 0 1 4 194 213 78 357 465 266 189 155 174 276 246 212 131 76 38 9 0 0 0 0 0 0 0 0 0 0 0 0 0 0 0 0 0 0 0
3 1 2 1 0 0 0 0 0 0 0 0 0 1 1 303 326 448 663 679 551 398 260 293 309 278 200 79 77 2 0 0 0 0 0 0 0 0 0 0 0 0 0 0 0 0 0 0 0
0 0 0 0 0 0 1 0 0 0 0 0 0 0 102 323 472 544 686 696 711 606 443 336 301 225 78 6 1 0 0 0 0 0 0 0 0 0 0 0 0 0 0 0 0 0 0 0 0
0 0 0 0 0 0 0 0 0 2 0 0 0 0 129 415 609 650 600 575 627 412 295 334 249 53 0 0 0 0 0 0 0 0 0 0 0 0 0 0 0 0 0 0 0 0 0 0 0
0 0 0 3 0 0 0 0 0 17 7 2 2 1 46 342 555 590 605 634 466 292 185 111 20 0 0 0 0 0 0 0 0 0 0 0 0 0 0 0 0 0 0 0 0 0 0 0 0
0 0 0 0 0 0 4 0 0 0 5 3 63 8 164 309 476 620 694 546 316 99 14 0 0 0 0 0 0 0 0 0 0 0 0 0 0 0 0 0 0 0 0 0 0 0 0 0 0
0 0 4 6 0 0 0 0 0 0 0 2 124 262 329 349 331 474 496 446 245 91 0 0 0 0 0 0 0 0 0 0 0 0 0 0 0 0 0 0 0 0 0 0 0 0 0 0 0

GFSSGP_con_mlcape_039.txt.gz
CAPE
0 0 0 0 0 0 0 0 0 0 127 633 559 657 717 858 645 268 245 412 759 743 627 402 125 73 89 57 3 0 0 0 0 0 0 6 0 0 0 0 0 0 0 0 0 0 0 0 0
0 0 0 0 0 0 0 0 0 74 762 887 769 764 637 709 816 500 361 661 804 689 537 326 281 225 136 43 0 1 0 0 0 5 5 3 0 0 0 0 0 0 0 0 0 0 0 0 0
0 0 0 0 0 0 0 0 500 566 543 181 72 235 655 821 616 418 409 701 842 661 473 335 208 164 95 2 2 16 1 3 11 21 9 12 8 3 0 3 0 0 0 0 0 0 0 0 0
0 0 0 0 0 0 0 0 0 400 320 150 49 122 364 670 727 501 632 660 745 605 465 303 160 111 48 11 11 9 14 38 49 52 58 37 31 17 0 0 5 0 0 0 0 0 0 0 0
0 0 0 0 0 0 0 127 14 157 366 75 12 106 524 613 507 565 576 506 480 549 437 254 234 128 68 21 12 4 63 88 101 104 83 62 36 8 0 0 0 0 0 0 0 0 0 0 0
0 0 0 0 0 0 51 348 288 355 222 74 25 41 476 651 410 270 435 453 330 323 157 116 80 70 33 31 13 29 57 115 145 124 91 60 23 1 0 0 0 0 0 0 0 0 0 0 0
0 0 0 0 0 0 50 381 441 323 216 88 29 108 521 709 257 150 61 0 0 4 68 52 77 79 62 75 34 58 117 123 106 50 24 8 0 0 0 0 0 0 0 0 0 0 0 0 0
0 0 0 0 0 0 236 360 301 229 110 14 215 277 267 463 56 0 0 0 0 1 3 0 12 14 41 45 79 66 31 56 18 0 0 0 0 0 0 0 0 0 0 0 0 0 0 0 0
0 0 0 0 0 0 284 360 230 99 82 94 286 318 355 243 41 1 1 0 0 0 0 0 0 0 5 26 0 1 23 8 0 0 0 0 0 0 0 0 0 0 0 0 0 0 0 0 0
0 0 0 0 0 30 341 259 88 34 206 333 424 295 232 146 78 41 6 2 0 0 0 0 0 0 0 22 0 6 19 3 0 0 0 0 0 0 0 0 0 0 0 0 0 0 0 0 0
0 0 0 0 0 57 95 78 48 23 152 249 295 267 316 142 42 55 32 1 0 0 0 3 1 42 43 27 0 0 0 0 0 0 0 0 1 0 0 0 0 0 0 0 0 0 0 0 0
0 0 0 0 44 49 40 8 9 13 0 287 303 261 73 8 2 38 58 0 5 0 0 0 21 91 65 15 0 0 0 0 0 0 0 0 9 0 0 0 0 0 0 0 0 0 0 0 0
0 0 0 50 87 35 7 1 0 8 285 361 199 52 33 27 25 26 19 7 2 12 0 1 74 105 32 1 0 0 0 0 25 102 129 55 17 0 0 0 0 0 0 0 0 0 0 0 0
0 0 14 86 56 5 3 2 17 22 377 64 9 39 84 39 21 49 50 6 6 12 4 36 73 75 7 0 0 0 0 152 140 92 70 11 0 0 0 0 0 0 0 0 0 0 0 0 0
1 1 110 80 28 7 40 11 0 192 390 72 56 57 56 43 36 14 17 0 0 0 5 35 81 91 0 0 0 0 11 42 37 3 0 0 0 0 0 0 0 0 0 0 0 0 0 0 0
15 2 20 79 110 67 14 5 13 245 387 336 259 120 64 88 64 31 20 0 0 0 20 72 157 45 0 0 0 1 19 0 0 0 0 0 0 0 0 0 0 0 0 0 0 0 0 0 0
1 0 0 2 105 27 10 57 51 30 325 375 342 282 193 187 140 61 10 0 0 30 67 117 156 74 0 0 0 7 0 0 0 0 0 0 0 0 0 0 0 0 0 0 0 0 0 0 0
34 16 0 0 64 9 21 9 88 109 453 377 360 434 427 354 319 163 167 63 77 119 118 171 146 64 0 0 0 0 0 0 0 0 0 0 0 0 0 0 0 0 0 0 0 0 0 0 0
30 18 9 0 0 0 8 1 101 272 360 475 499 510 525 491 523 381 296 260 229 163 164 199 139 10 0 0 0 0 0 0 0 0 0 0 0 0 0 0 0 0 0 0 0 0 0 0 0
10 19 6 0 0 0 0 0 0 251 499 378 559 484 521 558 568 607 369 384 310 204 218 166 85 2 2 0 0 0 0 0 0 0 0 0 0 0 0 0 0 0 0 0 0 0 0 0 0
0 0 0 1 0 0 0 0 0 5 304 529 380 297 194 570 502 563 435 327 349 232 195 134 30 8 0 0 0 0 0 0 0 0 0 0 0 0 0 0 0 0 0 0 0 0 0 0 0
0 0 0 0 0 0 0 0 0 0 74 308 448 263 91 249 409 408 354 297 317 279 161 103 36 17 0 0 0 0 0 0 0 0 0 0 0 0 0 0 0 0 0 0 0 0 0 0 0
0 0 0 0 0 0 0 0 0 0 0 108 131 172 53 59 187 227 295 259 204 151 187 82 22 10 2 0 0 0 0 0 0 0 0 0 0 0 0 0 0 0 0 0 0 0 0 0 0
0 0 0 0 0 0 0 0 0 0 0 0 0 96 56 8 30 45 119 108 83 72 139 54 7 0 0 0 0 0 0 0 0 0 0 0 0 0 0 0 0 0 0 0 0 0 0 0 0
0 0 0 0 0 0 0 0 0 0 0 0 0 0 32 0 0 28 95 158 127 138 110 63 38 36 29 3 0 0 0 0 0 0 0 0 0 0 0 0 0 0 0 0 0 0 0 0 0
0 0 0 0 0 0 0 0 0 0 0 0 0 0 0 8 34 93 111 143 135 135 128 87 123 171 116 77 33 1 0 0 0 0 0 0 0 0 0 0 0 0 0 0 0 0 0 0 0
0 0 0 0 0 0 0 0 0 0 1 0 0 0 1 3 152 276 349 290 104 93 140 128 220 274 98 81 0 0 0 0 0 0 0 0 0 0 0 0 0 0 0 0 0 0 0 0 0
0 0 0 0 0 0 0 0 0 3 6 4 0 1 29 98 244 346 438 465 417 156 123 150 182 205 69 0 0 0 0 0 0 0 0 0 0 0 0 0 0 0 0 0 0 0 0 0 0
0 0 0 0 0 0 0 0 0 0 0 0 0 0 27 168 365 546 555 507 519 480 495 398 182 62 4 0 0 0 0 0 0 0 0 0 0 0 0 0 0 0 0 0 0 0 0 0 0
0 0 0 0 0 0 0 0 0 0 0 0 0 1 0 126 315 496 560 497 475 537 496 272 51 5 0 0 0 0 0 0 0 0 0 0 0 0 0 0 0 0 0 0 0 0 0 0 0

GFSSGP_con_mlcape_042.txt.gz
CAPE
0 0 0 0 0 0 0 0 0 0 0 882 769 766 733 729 470 245 321 512 724 752 589 441 243 76 25 0 0 0 0 0 0 0 0 0 0 0 0 0 0 0 0 0 11 76 8 0 0
0 0 0 0 0 0 0 0 0 232 865 446 400 667 762 691 604 434 486 785 741 734 513 386 310 130 29 0 0 0 0 0 1 12 13 7 0 0 0 0 0 0 0 0 30 36 9 0 0
0 0 0 0 0 0 0 0 0 210 597 400 268 419 573 632 573 515 466 918 700 658 424 354 295 120 16 0 0 0 0 0 11 16 20 13 2 0 0 0 0 0 0 0 0 2 15 7 0
0 0 0 0 0 0 0 0 0 71 384 195 197 272 654 750 774 591 812 804 600 567 374 370 260 104 2 0 0 3 10 34 37 36 37 36 21 14 23 17 2 0 0 0 0 0 0 0 0
0 0 0 0 0 0 0 31 127 50 359 192 83 321 784 570 844 815 730 419 601 559 435 298 130 51 54 55 30 23 51 82 82 92 102 79 59 31 31 18 16 0 0 0 0 0 0 0 0
0 0 0 0 0 0 0 215 424 412 293 187 288 354 675 611 641 140 61 72 115 354 352 232 118 132 213 171 41 93 123 133 144 141 138 99 51 15 1 0 0 0 0 0 0 0 0 0 0
0 0 0 0 0 0 0 484 515 432 272 181 296 393 767 563 371 1 0 0 0 46 113 69 16 23 126 134 113 175 182 166 162 120 109 44 9 0 0 0 0 0 0 0 0 0 0 0 0
0 0 0 0 0 0 61 539 461 345 206 137 408 437 531 342 59 0 0 0 0 1 2 3 0 0 73 134 252 255 203 179 91 43 2 0 0 0 0 0 0 0 0 0 0 0 0 0 0
0 0 0 0 0 0 57 497 381 306 317 455 497 552 479 105 0 0 0 3 2 0 0 8 8 36 79 111 180 217 232 67 22 0 0 0 0 0 0 0 0 0 0 0 0 0 0 0 0
0 0 0 0 0 0 179 320 212 281 495 569 561 649 392 124 1 2 0 1 4 4 0 0 0 6 5 0 34 42 93 17 0 0 0 0 0 0 0 0 0 0 0 0 0 0 0 0 0
0 0 0 0 0 13 254 261 93 275 269 422 436 540 530 189 30 14 2 1 2 5 1 0 0 11 46 7 4 14 1 0 0 0 0 0 0 0 0 0 0 0 0 0 0 0 0 0 0
0 0 0 0 3 129 124 77 139 65 73 395 550 540 288 116 88 30 0 1 1 1 0 0 6 26 109 19 0 0 0 0 0 0 0 0 0 0 0 0 0 0 0 0 0 0 0 0 0
0 0 0 0 41 112 39 60 4 196 299 539 469 341 142 69 103 75 20 13 0 0 0 0 5 78 42 14 0 0 0 0 0 0 0 0 9 0 0 0 0 0 0 0 0 0 0 0 0
0 0 1 24 145 59 60 44 34 294 494 444 329 118 68 54 87 64 12 0 2 0 0 0 14 75 35 0 0 0 0 0 0 0 20 41 13 0 0 0 0 0 0 0 0 0 0 0 0
3 19 105 154 103 38 59 47 33 384 510 235 154 60 104 36 95 62 33 1 0 0 0 0 4 91 12 0 0 0 0 5 107 69 3 12 0 0 0 0 0 0 0 0 0 0 0 0 0
12 17 71 85 82 52 16 1 20 516 271 29 53 112 143 53 54 86 81 0 0 0 0 0 37 106 1 0 0 0 0 24 0 0 0 0 0 0 0 0 0 0 0 0 0 0 0 0 0
4 0 0 2 71 74 30 26 48 438 358 64 78 110 131 112 48 28 71 8 0 0 6 29 68 102 7 0 0 0 0 3 0 0 0 0 0 0 0 0 0 0 0 0 0 0 0 0 0
29 7 0 3 95 26 40 6 38 265 420 234 201 160 156 121 147 96 16 28 0 0 8 51 93 92 4 0 0 0 0 0 0 0 0 0 0 0 0 0 0 0 0 0 0 0 0 0 0
33 31 10 4 0 12 1 0 0 72 261 361 318 252 241 247 249 203 69 45 10 0 25 57 119 82 14 0 0 0 10 0 0 0 0 0 0 0 0 0 0 0 0 0 0 0 0 0 0
9 24 16 1 0 0 0 0 0 99 128 301 226 283 308 361 419 417 218 194 91 37 36 53 81 91 52 0 0 0 0 0 0 0 0 0 0 0 0 0 0 0 0 0 0 0 0 0 0
1 1 3 3 0 0 0 0 0 46 194 380 407 330 339 422 474 528 456 297 278 124 78 59 92 94 38 2 0 0 0 0 0 0 0 0 0 0 0 0 0 0 0 0 0 0 0 0 0
2 0 0 0 0 0 0 0 0 0 140 320 374 387 362 339 520 582 570 461 339 224 83 120 117 74 9 0 0 0 0 0 0 0 0 0 0 0 0 0 0 0 0 0 0 0 0 0 0
0 0 0 0 0 0 0 0 0 0 0 67 385 347 347 328 470 567 584 532 346 239 127 143 96 41 1 0 0 0 0 0 0 0 0 0 0 0 0 0 0 0 0 0 0 0 0 0 0
0 0 0 0 0 0 0 0 0 0 0 0 7 274 370 117 275 352 428 408 308 170 167 161 146 88 1 0 0 0 0 0 0 0 0 0 0 0 0 0 0 0 0 0 0 0 0 0 0
0 0 0 0 0 0 0 0 0 0 0 0 0 0 87 217 96 155 207 328 257 197 141 147 148 126 24 4 0 0 0 0 0 0 0 0 0 0 0 0 0 0 0 0 0 0 0 0 0
0 0 0 0 0 0 0 0 0 0 0 0 0 0 0 0 0 83 65 169 212 178 138 145 185 151 31 0 0 0 0 0 0 0 0 0 0 0 0 0 0 0 0 0 0 0 0 0 0
0 0 0 0 0 0 0 0 0 0 0 0 0 0 0 0 0 25 9 58 131 128 143 157 158 147 52 10 0 0 0 0 0 0 0 0 0 0 0 0 0 0 0 0 0 0 0 0 0
0 0 0 0 0 0 0 0 0 0 0 0 0 0 0 0 0 43 77 81 100 117 149 131 110 129 70 12 0 0 0 0 0 0 0 0 0 0 0 0 0 0 0 0 0 0 0 0 0
0 0 0 0 0 0 0 0 0 0 0 0 0 0 0 8 34 117 212 204 164 167 149 79 47 66 50 0 0 0 0 0 0 0 0 0 0 0 0 0 0 0 0 0 0 0 0 0 0
0 0 0 0 0 0 0 0 0 0 0 0 0 0 0 35 111 227 306 345 410 394 283 173 132 179 16 0 0 0 0 0 0 0 0 0 0 0 0 0 0 0 0 0 0 0 0 0 0

GFSSGP_con_mlcape_045.txt.gz
CAPE
0 0 0 0 0 0 0 0 0 0 0 1073 923 839 807 819 617 444 531 702 891 650 499 428 370 316 144 33 0 0 0 0 0 0 9 18 2 0 0 0 0 4 20 30 27 44 209 170 0
0 0 0 0 0 0 0 0 0 170 673 438 564 1051 942 806 691 580 694 951 958 706 540 436 340 265 161 70 29 0 1 14 12 33 38 2 0 1 0 0 0 81 206 194 109 34 78 144 0
0 0 0 0 0 0 0 0 0 23 806 492 490 605 880 783 651 579 551 1056 1002 680 570 459 309 154 81 21 1 10 44 46 50 34 17 13 6 1 4 0 0 50 204 217 168 133 116 9 0
0 0 0 0 0 0 0 0 0 35 480 331 465 708 980 753 767 787 1108 1055 949 679 572 426 210 93 2 11 17 43 96 79 67 32 30 17 26 26 30 0 0 0 61 175 187 52 0 0 0
0 0 0 0 0 0 0 0 84 99 472 386 272 622 877 787 518 681 679 720 805 714 521 335 114 55 43 10 11 45 61 62 49 61 60 68 75 64 18 0 0 0 0 3 0 0 0 0 0
0 0 0 0 0 0 0 192 574 598 484 464 708 629 874 747 510 321 368 331 370 515 400 299 42 140 145 82 55 74 72 77 113 104 111 110 75 52 9 0 0 0 0 0 0 0 0 0 0
0 0 0 0 0 0 3 556 653 606 439 425 561 611 840 583 215 36 100 138 132 193 305 107 55 35 39 242 53 73 79 145 174 119 79 48 14 10 0 0 0 0 0 0 0 0 0 0 0
0 0 0 0 0 0 79 608 614 543 462 382 653 628 597 243 27 1 1 1 1 4 3 2 0 13 22 246 160 78 130 164 177 84 8 0 0 0 0 0 0 0 0 0 0 0 0 0 0
0 0 0 0 0 0 135 604 524 549 520 597 665 702 595 41 4 0 2 2 3 4 3 0 1 6 46 248 291 131 142 135 57 29 0 0 0 0 0 0 0 0 0 0 0 0 0 0 0
0 0 0 0 0 0 36 534 536 591 552 570 621 608 284 17 2 0 2 2 4 3 3 0 0 0 18 180 142 107 80 67 16 1 0 0 0 0 0 0 0 0 0 0 0 0 0 0 0
0 0 0 0 0 0 184 449 287 440 344 522 546 536 204 62 3 0 3 4 2 1 5 9 0 0 31 27 15 8 44 1 0 0 0 0 0 0 0 0 0 0 0 0 0 0 0 0 0
0 0 0 0 0 69 214 214 296 221 148 500 677 572 313 111 23 0 3 2 3 1 3 0 0 0 23 11 45 31 7 0 0 0 0 0 0 0 0 0 0 0 0 0 0 0 0 0 0
0 0 0 0 0 118 153 171 67 292 513 757 641 382 240 133 42 2 1 2 0 0 4 2 34 60 45 40 33 8 0 0 0 0 0 0 0 0 0 0 0 0 0 0 0 0 0 0 0
0 0 0 0 80 105 87 69 32 400 667 558 445 210 169 106 32 21 4 3 5 3 0 14 54 55 106 22 0 0 0 0 0 0 18 54 27 0 0 0 0 0 0 0 0 0 0 0 0
0 4 60 92 119 52 66 77 18 423 587 518 327 139 72 100 101 78 21 2 3 1 0 0 17 125 67 9 0 0 0 0 0 0 1 41 11 0 0 0 0 0 0 0 0 0 0 0 0
0 11 24 20 134 50 12 25 35 561 587 237 201 86 76 36 114 90 31 20 1 0 0 0 10 98 59 0 0 0 0 4 58 69 34 6 0 0 0 0 0 0 0 0 0 0 0 0 0
0 0 0 0 92 84 39 57 54 652 416 95 126 125 142 84 116 86 11 0 0 0 0 0 1 142 76 0 0 0 0 46 63 0 0 0 0 0 0 0 0 0 0 0 0 0 0 0 0
12 0 0 0 86 92 108 53 49 500 393 83 98 110 145 165 60 102 118 22 4 7 0 0 0 111 166 0 0 0 0 26 15 1 0 0 0 0 0 0 0 0 0 0 0 0 0 0 0
0 7 10 14 0 32 51 41 21 223 475 245 162 169 159 152 174 110 79 159 18 18 10 8 52 117 115 10 0 0 0 0 0 0 0 0 0 0 0 0 0 0 0 0 0 0 0 0 0
0 0 13 2 0 0 0 0 0 65 245 312 279 267 185 238 250 251 198 120 135 10 19 34 61 132 139 57 0 0 0 3 0 0 0 0 0 0 0 0 0 0 0 0 0 0 0 0 0
1 0 8 15 0 0 0 0 0 1 109 174 316 385 356 266 331 390 342 202 99 77 21 61 96 142 191 89 3 0 0 0 0 0 0 0 0 0 0 0 0 0 0 0 0 0 0 0 0
0 0 0 9 7 1 0 0 0 0 52 183 218 359 350 324 350 514 509 424 248 176 94 37 103 94 127 81 38 0 0 6 0 0 0 0 0 0 0 0 0 0 0 0 0 0 0 0 0
0 0 0 0 0 0 0 0 0 0 0 62 267 373 405 389 388 537 656 636 477 355 195 107 92 81 68 59 65 0 0 0 0 0 0 0 0 0 0 0 0 0 0 0 0 0 0 0 0
0 0 0 0 0 0 0 0 0 0 0 0 2 229 388 392 321 440 689 763 645 488 278 192 95 100 74 51 27 1 0 0 0 0 0 0 0 0 0 0 0 0 0 0 0 0 0 0 0
0 0 0 0 0 0 0 0 5 0 0 0 0 0 25 346 319 340 520 649 708 521 446 267 204 125 93 37 32 1 0 0 0 0 0 0 0 0 0 0 0 0 0 0 0 0 0 0 0
0 0 0 0 0 0 0 0 0 0 0 0 0 0 0 0 82 292 439 555 584 515 490 350 244 256 143 80 101 10 0 0 0 0 0 0 0 0 0 0 0 0 0 0 0 0 0 0 0
0 0 0 0 0 0 0 0 0 0 0 0 0 0 0 0 0 0 140 268 342 318 399 376 306 282 175 116 61 16 1 0 0 0 0 0 0 0 0 0 0 0 0 0 0 0 0 0 0
0 0 0 0 0 0 0 0 0 0 0 0 0 0 0 0 0 0 14 55 156 225 257 260 313 379 298 172 94 40 4 0 0 0 0 0 0 0 0 0 0 0 0 0 0 0 0 0 0
0 0 0 0 0 0 0 0 0 0 0 0 0 0 0 7 15 38 106 113 132 153 175 225 282 317 282 165 97 43 2 0 1 0 0 0 0 0 0 0 0 0 0 0 0 0 0 0 0
0 0 0 0 0 0 0 0 0 0 0 0 0 0 0 0 16 138 270 345 321 254 230 245 224 231 233 103 11 6 0 2 3 3 2 0 0 0 0 0 0 0 0 0 0 0 0 0 0

GFSSGP_con_mlcape_051.txt.gz
CAPE
0 0 0 0 0 0 0 3 32 47 144 289 297 648 778 405 162 172 981 1597 1387 649 595 960 1013 1004 892 743 559 334 109 12 0 0 2 12 78 182 282 382 361 249 0 0 0 0 0 0 0
0 0 0 0 0 0 6 0 1 33 288 483 882 1172 820 660 375 1172 1250 1533 1470 480 562 940 1052 984 816 612 348 171 36 20 0 0 10 71 133 102 166 258 443 404 187 0 0 0 0 0 0
0 0 0 0 0 0 5 4 52 33 212 865 788 946 783 973 1109 1257 1318 338 963 433 477 905 976 837 622 370 187 60 50 16 0 29 65 100 88 109 151 195 307 418 337 0 0 0 0 0 0
0 0 0 0 0 18 0 0 0 0 144 440 806 1034 1473 1280 1470 1627 1501 1378 1046 599 340 739 788 578 349 139 69 58 43 47 42 103 133 77 102 255 297 390 412 449 396 39 0 0 0 0 0
0 0 0 6 2 1 0 0 0 2 88 424 594 935 1658 1320 1425 1531 1854 1740 1463 951 771 686 477 300 146 107 85 101 87 73 114 182 127 99 151 296 506 602 536 519 395 0 0 0 0 0 0
0 0 0 7 2 0 0 48 295 186 322 737 915 926 1641 1270 1312 1056 1283 1268 1134 862 502 320 203 178 163 170 116 126 81 143 192 171 157 159 143 216 473 576 494 372 71 0 0 0 0 0 0
0 0 8 1 13 7 24 480 976 1138 899 956 1357 1237 1574 1339 619 713 797 735 655 537 190 138 109 39 55 66 35 68 109 168 220 236 182 122 100 121 267 275 173 39 0 0 0 0 0 0 0
0 0 0 7 7 8 222 572 1035 1100 1033 1224 1283 1292 1181 978 398 279 295 284 361 215 158 11 0 56 65 114 66 135 147 190 220 197 129 87 46 46 106 77 36 0 0 0 0 0 0 0 0
0 0 4 15 32 5 76 336 1140 1222 1117 1225 1632 1721 1049 556 349 293 164 30 3 2 1 1 1 0 43 66 49 132 270 252 161 119 47 25 6 0 7 29 17 0 0 0 0 0 0 0 0
0 17 6 2 4 15 7 296 1018 1060 984 1102 1216 910 626 499 512 327 145 5 3 4 3 2 0 6 30 51 3 69 333 216 160 85 41 52 30 68 9 17 0 0 0 0 0 0 0 0 0
1 0 0 22 0 0 12 441 771 760 335 882 1218 496 475 357 353 119 4 4 4 4 4 0 0 0 0 10 21 40 168 172 121 83 130 60 94 54 72 1 0 0 0 0 0 0 0 0 0
0 1 1 3 0 12 443 496 644 649 968 1294 800 427 445 510 63 3 3 4 1 2 2 2 0 0 5 0 0 21 132 173 139 202 175 194 147 90 80 8 0 0 0 0 0 0 0 0 0
0 0 2 0 0 274 275 332 466 984 1310 1170 653 457 413 548 65 5 5 4 1 1 1 0 0 3 2 24 25 62 66 41 57 165 201 193 131 108 82 94 47 7 4 0 0 0 0 0 0
9 0 0 1 27 12 123 378 470 1166 1342 1035 731 653 503 538 116 4 5 4 4 4 0 4 15 1 14 8 4 65 69 111 122 209 205 173 162 118 65 94 56 56 29 12 0 0 0 0 0
0 0 13 0 10 34 148 94 297 1096 1245 969 917 442 435 387 87 79 3 2 0 0 0 0 0 3 7 0 9 13 43 156 211 134 159 253 126 103 67 111 110 81 34 5 0 0 0 0 0
0 0 1 0 47 103 53 0 741 781 1084 761 490 456 313 371 133 83 46 7 0 0 1 1 0 5 0 2 6 15 139 102 58 57 233 286 187 141 151 119 76 54 12 0 0 0 0 0 0
0 0 12 9 15 90 79 12 501 464 911 594 599 403 276 267 179 117 26 9 0 0 0 2 1 0 0 17 38 123 19 0 0 51 256 365 469 473 355 216 112 48 0 0 0 0 0 0 0
4 4 5 1 16 22 117 84 331 459 532 513 458 321 215 287 237 146 114 15 1 7 8 1 12 11 30 82 6 4 20 0 39 245 399 491 585 539 466 215 114 29 0 0 0 0 0 0 0
0 2 13 28 32 66 80 74 56 542 453 418 371 388 220 328 323 223 129 99 26 40 49 66 79 77 103 100 14 0 0 18 72 242 398 416 423 366 285 165 65 4 0 0 0 0 0 0 0
0 19 17 37 6 2 2 32 0 309 504 265 316 367 299 286 357 230 201 181 133 112 94 104 90 112 274 208 70 2 0 1 12 143 346 407 342 282 230 120 0 2 0 0 0 0 0 0 0
0 26 16 22 2 0 0 0 10 7 187 347 163 205 217 326 417 390 145 140 171 176 183 210 219 329 348 364 225 36 1 1 29 129 335 372 438 334 148 105 11 0 0 0 0 0 0 0 0
3 0 10 5 12 24 0 1 0 3 32 292 239 149 162 227 462 511 510 297 141 133 200 216 227 238 270 316 316 129 3 0 3 72 235 386 278 89 7 9 1 0 0 0 0 0 0 0 0
6 0 8 13 41 19 4 26 5 0 8 39 315 307 215 204 296 516 574 560 525 360 286 336 257 207 222 359 353 348 121 4 54 187 334 478 270 76 20 0 0 0 0 0 0 0 0 0 0
0 0 2 10 20 32 49 15 28 9 0 12 27 154 313 261 315 412 570 616 649 599 546 389 321 264 260 384 491 514 369 160 20 279 456 457 364 186 6 0 0 0 0 0 0 0 0 0 0
0 1 12 6 16 22 38 28 4 0 16 2 11 59 160 285 334 394 470 670 855 915 858 774 507 270 293 401 528 608 623 529 317 199 563 366 242 89 0 0 0 0 0 0 0 0 0 0 0
0 9 33 11 47 91 39 0 12 10 2 0 0 37 65 149 354 456 519 550 862 1083 1178 1032 913 765 440 453 611 837 826 940 885 734 589 514 446 274 0 0 0 0 0 0 0 0 0 0 0
16 3 17 20 90 22 84 27 9 2 0 0 0 91 159 180 133 337 638 722 851 1212 1432 1456 1298 1180 896 552 360 86 383 1150 1115 971 874 801 518 1 0 0 0 0 0 0 0 0 0 0 0
3 12 11 19 18 17 42 101 96 3 0 0 0 11 196 277 156 208 511 701 905 1211 1616 1746 1761 1537 1242 951 819 790 997 1176 979 792 729 569 9 0 0 0 0 0 0 0 0 0 0 0 0
0 7 26 42 38 59 83 113 46 0 0 0 0 0 0 198 374 305 352 480 704 1012 1481 1879 1943 1805 1655 1460 1316 1144 874 849 617 460 426 153 0 1 0 0 0 0 0 0 0 0 0 0 0
6 7 36 36 72 19 24 29 13 0 0 0 0 0 0 1 353 591 637 611 680 937 1277 1568 1693 1677 1512 1419 1394 1202 864 652 464 335 186 4 2 0 0 0 0 0 0 0 0 0 0 0 0

GFSSGP_con_mlcape_054.txt.gz
CAPE
0 0 0 0 0 0 0 0 0 0 5 249 224 54 208 115 107 357 801 58 0 418 1444 1601 1434 1149 1002 911 738 506 261 72 12 3 20 14 98 418 382 22 0 0 0 0 0 0 0 0 0
0 0 0 0 0 0 0 0 21 38 160 263 47 1 46 208 29 611 890 885 491 937 1367 1610 1433 1240 1074 937 723 466 248 85 20 1 25 48 376 484 315 167 0 0 0 0 0 0 0 0 0
0 0 0 0 0 0 0 0 0 1 4 113 294 420 533 116 24 771 1363 1244 806 953 1432 1241 945 1124 1029 843 613 442 291 96 26 17 124 167 362 474 424 330 15 0 0 0 0 0 0 0 0
0 0 0 0 0 0 0 0 0 0 0 58 103 193 307 328 1135 1186 1435 1359 684 765 1347 972 913 924 864 708 526 444 186 66 44 160 163 247 316 379 453 343 247 40 0 0 0 0 0 0 0
0 0 0 0 0 0 0 0 0 0 0 25 23 270 267 785 1278 1343 1301 456 848 636 1079 925 806 759 738 567 443 268 174 109 199 196 239 357 426 371 340 415 420 47 22 0 0 0 0 0 0
0 0 0 2 8 0 0 2 46 111 18 11 163 377 495 923 833 843 1092 997 838 484 808 692 642 510 440 387 350 315 161 273 236 271 352 492 524 469 416 441 320 40 0 0 0 0 0 0 0
0 0 0 0 1 1 0 0 0 550 124 415 559 165 312 451 424 457 500 667 585 565 511 347 191 153 151 134 292 297 328 344 344 302 225 358 512 516 462 397 170 7 0 0 0 0 0 0 0
0 0 0 0 0 0 0 26 564 623 258 0 881 251 0 530 381 268 369 377 399 378 257 90 1 0 1 24 89 210 260 347 271 131 153 290 391 365 317 216 29 0 0 0 0 0 0 0 0
0 0 0 1 12 0 0 32 41 250 593 157 826 400 451 304 306 335 292 202 173 189 187 45 0 0 0 0 17 217 302 295 148 85 84 179 225 181 95 60 4 0 0 0 0 0 0 0 0
0 0 0 0 0 0 0 1 442 465 116 2 0 474 500 526 436 176 125 47 5 0 22 4 1 0 0 1 0 23 202 241 124 48 16 46 59 109 101 46 5 0 0 0 0 0 0 0 0
0 0 0 0 0 0 0 0 26 51 441 483 0 185 333 476 288 4 2 4 4 1 1 1 1 6 0 0 12 22 30 161 157 136 118 137 118 71 35 12 4 0 0 0 0 0 0 0 0
0 0 0 0 0 0 28 50 20 113 1128 668 216 478 439 365 84 2 2 1 2 2 2 2 0 1 1 3 1 0 0 100 156 155 205 192 142 71 13 4 0 0 0 0 0 0 0 0 0
0 0 0 0 0 0 82 114 77 1043 1033 565 405 533 535 136 0 3 4 3 2 3 1 2 3 0 0 6 10 4 41 100 74 204 226 275 201 142 35 60 3 0 0 0 0 0 0 0 0
0 1 0 0 0 0 1 2 18 56 852 563 566 463 519 28 0 4 2 2 2 1 0 4 0 6 4 0 0 2 45 92 154 196 221 227 171 210 155 183 83 8 8 0 0 0 0 0 0
0 0 0 1 0 0 15 0 0 0 34 775 424 182 368 49 5 4 1 3 1 1 0 1 1 7 4 0 16 37 67 116 156 140 234 188 220 212 196 195 132 64 38 30 0 0 0 0 0
0 0 0 0 2 3 0 0 0 0 66 756 224 86 241 40 70 1 1 1 0 0 0 0 0 0 0 0 0 2 45 114 127 156 137 213 233 162 143 104 188 134 59 13 0 0 0 0 0
0 0 0 3 4 47 2 0 0 34 86 407 207 154 169 74 82 3 0 1 0 0 0 0 0 0 0 0 0 2 6 12 106 95 159 205 210 227 113 257 170 111 24 0 0 0 0 0 0
0 0 0 0 8 17 56 33 0 197 434 261 359 158 171 77 60 25 1 0 0 0 0 0 0 0 0 0 0 1 4 69 9 0 86 216 288 355 355 273 223 76 3 0 0 0 0 0 0
0 0 0 12 15 18 81 136 24 8 247 166 328 119 195 149 97 26 0 0 0 0 0 0 0 0 0 13 0 0 22 11 0 7 95 349 281 352 298 321 194 54 5 0 0 0 0 0 0
0 0 0 1 6 0 1 3 21 220 38 279 220 229 146 251 155 98 3 0 1 0 0 0 0 0 0 0 1 0 0 0 1 1 295 372 377 439 448 301 129 57 20 6 0 0 0 0 0
0 0 0 1 0 0 0 0 0 32 166 119 178 287 197 244 325 117 98 1 0 39 26 0 0 0 0 0 59 39 0 0 4 31 189 204 320 265 341 279 164 59 21 0 0 0 0 0 0
0 0 0 0 1 0 0 0 0 2 19 133 64 202 234 325 423 301 158 158 78 180 130 124 155 162 122 172 194 121 0 0 1 0 150 258 405 318 313 229 176 41 5 0 0 0 0 0 0
0 3 0 0 0 0 15 2 1 0 5 40 136 85 158 254 453 434 232 222 261 216 212 187 242 208 203 289 350 271 72 1 0 30 46 352 459 392 314 138 65 21 0 0 0 0 0 0 0
0 0 0 0 0 2 0 3 5 4 2 10 63 171 111 162 396 608 466 220 251 227 341 296 307 278 272 489 508 426 291 107 59 92 167 406 438 289 134 92 45 1 0 0 0 0 0 0 0
0 2 0 0 0 0 9 26 43 5 0 0 0 116 221 196 211 479 630 617 434 251 248 409 389 373 308 301 445 337 430 428 146 162 280 423 445 342 216 128 18 0 0 0 0 0 0 0 0
0 0 0 0 0 28 0 43 5 0 0 2 0 4 85 218 281 312 520 694 703 670 616 439 461 465 448 354 445 657 494 532 507 382 310 393 469 377 235 85 2 0 0 0 0 0 0 0 0
3 0 0 13 13 16 63 0 0 2 0 0 0 0 19 73 373 348 429 531 798 859 945 945 813 544 400 437 385 347 561 545 419 346 519 438 501 416 265 23 0 0 0 0 0 0 0 0 0
0 0 4 1 3 10 31 53 28 11 0 0 0 0 72 219 188 170 413 569 835 1050 1198 1235 1124 1009 774 428 404 283 265 279 285 0 727 845 399 51 0 0 0 0 0 0 0 0 0 0 0
0 0 9 26 8 11 4 52 7 0 0 0 0 0 0 70 255 196 289 469 795 1021 1421 1641 1506 1322 1245 736 417 350 78 100 272 704 787 718 264 10 0 0 0 0 0 0 0 0 0 0 0
0 0 7 39 23 41 26 17 0 0 0 0 0 0 0 3 292 412 398 428 536 1036 1499 1800 1848 1736 1485 1053 531 821 845 946 812 635 467 284 111 0 0 0 0 0 0 0 0 0 0 0 0

GFSSGP_con_mlcape_057.txt.gz
CAPE
0 0 0 0 0 0 0 0 0 5 137 272 233 96 246 247 314 428 757 247 0 0 0 5 773 1051 1114 813 604 433 322 255 174 69 245 440 207 7 0 0 0 0 0 0 0 0 0 0 0
0 0 0 0 0 0 0 0 0 0 239 248 262 109 402 378 150 1130 1102 230 115 0 46 289 786 979 1152 962 569 464 365 309 183 110 417 538 191 10 1 0 0 0 0 0 0 0 0 0 0
0 0 0 0 0 0 0 0 0 0 6 145 446 892 463 175 218 546 1204 262 180 775 1429 1254 1346 993 982 772 555 543 401 315 187 201 623 647 304 26 0 0 0 0 0 0 0 0 0 0 0
0 0 0 0 0 0 0 0 0 0 0 65 507 454 471 474 676 1060 1388 887 1035 942 1484 1248 966 703 514 557 570 425 277 213 244 498 701 609 568 97 29 14 10 0 0 0 0 0 0 0 0
0 0 0 0 0 0 0 0 0 39 318 517 399 483 50 128 914 905 1147 985 1018 1208 1139 1007 515 255 103 283 491 451 210 241 276 553 721 781 531 376 67 43 12 0 0 0 0 0 0 0 0
0 0 0 0 0 0 0 3 68 107 222 528 556 559 222 373 493 473 729 775 856 1006 832 738 556 548 480 358 129 221 399 300 370 499 685 761 628 503 226 46 7 0 0 0 0 0 0 0 0
0 0 0 0 0 0 1 32 119 6 287 43 345 278 38 71 210 310 517 712 910 836 689 587 463 412 273 129 89 106 387 418 421 513 683 580 573 541 229 37 0 0 0 0 0 0 0 0 0
0 0 0 0 0 0 0 0 93 58 13 203 540 29 0 222 166 249 464 755 795 619 373 202 222 131 40 8 39 66 280 311 229 357 499 483 528 494 237 27 0 0 0 0 0 0 0 0 0
0 0 0 0 0 0 0 0 15 57 39 104 494 83 72 145 86 380 593 455 562 390 217 106 0 0 0 0 0 54 256 181 159 393 379 314 278 234 202 43 12 0 0 0 0 0 0 0 0
0 0 0 0 0 0 0 27 247 86 9 15 154 467 330 300 105 174 403 533 323 215 127 28 1 0 0 0 0 23 93 78 79 142 122 143 113 172 156 78 24 0 0 0 0 0 0 0 0
0 0 0 0 0 0 0 35 33 0 85 70 26 293 380 131 0 2 47 64 44 25 17 2 2 0 0 0 0 0 0 28 17 26 45 75 115 168 120 56 18 0 0 0 0 0 0 0 0
0 0 0 0 1 0 1 4 43 0 0 354 254 306 251 14 0 0 0 1 1 2 1 1 2 0 0 0 0 0 0 2 33 26 66 102 72 70 10 15 1 0 0 0 0 0 0 0 0
0 0 0 0 0 0 11 59 1 0 0 122 438 379 48 0 2 1 2 3 2 2 2 1 0 0 0 0 13 3 11 31 50 101 93 119 27 1 5 7 0 0 0 0 0 0 0 0 0
0 0 0 0 0 0 0 0 0 0 0 62 337 282 42 0 2 2 1 2 0 1 1 0 1 0 0 0 3 0 17 17 39 115 171 161 0 2 19 22 0 0 0 0 0 0 0 0 0
0 0 0 0 0 0 0 0 0 0 15 262 419 310 73 1 0 0 2 1 0 2 2 0 0 0 0 0 0 0 4 0 13 90 134 167 171 150 60 80 26 1 0 0 0 0 0 0 0
0 0 0 0 0 3 2 0 0 0 12 201 320 243 61 9 0 0 1 0 0 1 0 2 0 0 0 0 0 0 0 3 14 56 128 149 130 167 161 168 129 46 3 0 0 0 0 0 0
0 0 0 0 0 15 0 2 0 0 0 132 189 166 66 26 0 0 0 1 1 0 2 4 0 0 0 0 0 0 6 22 53 69 46 58 102 173 78 112 96 159 36 0 0 0 0 0 0
0 0 0 0 0 3 20 0 0 0 45 0 92 155 45 15 0 0 0 0 0 0 0 0 0 0 0 0 0 0 0 12 14 0 4 47 97 126 119 58 160 72 4 0 0 0 0 0 0
0 0 0 0 11 6 34 57 0 1 48 92 47 117 24 2 0 0 0 0 0 0 0 0 0 0 0 0 0 0 0 0 0 0 0 28 89 68 194 180 148 55 3 0 0 0 0 0 0
0 0 0 0 2 0 0 40 36 0 58 78 28 78 48 3 0 0 0 0 0 0 0 0 0 0 0 0 0 0 0 0 0 0 0 0 58 145 241 193 131 62 0 0 0 0 0 0 0
0 0 0 0 5 1 0 0 24 31 1 43 25 37 95 19 0 0 0 0 0 0 0 0 0 0 0 0 0 0 0 0 0 0 0 76 198 191 181 193 145 58 2 0 0 0 0 0 0
0 0 0 0 0 0 0 0 0 63 52 1 63 32 94 77 8 0 0 0 0 0 0 0 0 0 0 0 0 0 0 0 0 0 0 0 159 168 232 235 168 86 43 2 0 0 0 0 0
0 0 0 0 0 0 0 0 4 23 36 9 71 58 51 124 84 9 0 0 0 0 0 0 0 0 0 0 0 0 0 0 0 0 0 0 78 125 214 190 216 110 30 0 0 0 0 0 0
0 0 0 0 0 0 0 0 0 1 4 60 15 81 69 178 140 98 18 0 0 0 0 0 0 0 0 0 0 2 55 0 0 0 0 11 151 178 186 181 145 75 29 5 0 0 0 0 0
0 0 0 0 0 0 0 0 0 0 0 0 4 30 67 82 230 165 93 70 20 1 50 9 6 21 24 19 23 44 79 130 13 0 0 1 83 194 218 191 90 43 5 0 1 0 0 0 0
0 0 0 0 0 0 0 0 0 0 0 0 0 29 27 43 189 236 189 153 128 85 75 58 24 43 55 51 93 123 125 197 120 22 16 67 98 135 188 102 86 31 9 0 0 0 0 0 0
0 0 0 0 22 6 0 1 0 0 0 0 0 0 0 2 152 265 263 168 123 186 103 128 67 12 73 64 126 221 232 145 216 204 132 148 153 174 165 87 48 0 0 0 0 0 0 0 0
0 0 0 1 0 0 0 1 2 0 0 0 0 0 0 11 66 95 394 316 177 130 124 46 112 144 103 155 134 139 275 195 185 322 319 118 92 74 101 33 0 0 0 0 0 0 0 0 0
0 0 0 10 17 8 0 0 0 0 0 0 0 0 7 114 145 81 111 237 410 354 170 121 106 179 249 206 208 208 222 331 256 261 247 187 90 35 0 2 0 0 0 0 0 0 0 0 0
0 0 0 0 0 29 4 0 0 0 0 0 0 0 0 3 118 129 200 218 176 433 483 526 410 246 251 206 142 112 82 100 18 49 133 112 252 67 1 0 0 0 0 0 0 0 0 0 0

GFSSGP_con_mlcape_060.txt.gz
CAPE
0 0 0 0 0 0 0 0 0 0 0 105 159 225 229 359 453 304 508 374 439 404 691 449 242 363 877 597 418 428 359 361 405 414 285 192 87 23 0 0 0 0 0 0 0 0 0 0 12
0 0 0 0 0 0 0 0 0 0 0 264 268 470 537 260 687 1225 729 460 222 107 373 439 159 374 586 637 577 620 475 520 574 451 336 201 49 7 2 0 0 0 0 0 0 0 0 0 0
0 0 0 0 0 0 0 0 0 0 270 293 788 709 446 247 353 887 1377 642 33 1 1 5 0 0 243 686 716 573 319 520 595 438 341 208 91 55 2 0 0 0 0 0 0 0 0 0 0
0 0 0 0 0 0 0 0 0 66 291 479 556 484 549 359 962 807 1189 323 214 332 577 240 4 429 589 565 579 437 408 543 610 458 312 305 192 83 11 0 0 0 0 0 0 0 0 0 0
0 0 0 0 0 0 0 0 56 94 248 293 446 241 94 582 668 843 1276 1099 1000 828 1078 826 475 406 318 330 431 421 335 523 715 646 328 265 147 54 0 0 0 0 0 0 0 0 0 0 0
0 0 0 0 0 0 0 74 60 44 112 119 367 390 405 508 479 604 1009 883 956 741 673 637 493 168 51 174 111 239 456 474 721 763 451 204 141 83 0 0 0 0 0 0 0 0 0 0 0
0 0 0 0 0 0 0 48 30 51 51 119 259 263 169 45 297 367 681 7 451 450 496 434 415 266 177 78 8 49 414 411 666 578 488 336 90 40 0 0 0 0 0 0 0 0 0 0 0
0 0 0 0 0 0 0 47 73 1 16 174 435 100 18 168 265 340 742 594 658 465 421 396 354 254 36 3 0 0 111 293 571 562 462 329 98 32 0 0 0 0 0 0 0 0 0 0 0
0 0 0 0 0 0 5 56 38 5 2 127 425 103 135 121 269 350 455 554 609 534 387 298 180 47 0 2 8 9 164 293 406 293 272 293 129 7 0 0 0 0 0 0 0 0 0 0 0
0 0 0 0 0 0 42 94 69 9 48 59 73 250 210 128 268 337 258 437 256 182 142 86 1 0 1 33 14 91 89 163 195 115 154 145 104 3 0 0 0 0 0 0 0 0 0 0 0
0 0 0 0 0 0 30 26 21 52 0 0 0 42 191 28 26 104 63 49 77 52 5 3 2 0 2 11 24 8 5 61 91 55 61 116 106 12 0 0 0 0 0 0 0 0 0 0 0
0 0 0 0 0 0 16 10 1 0 0 9 0 173 37 0 0 2 0 0 0 0 2 2 1 0 0 0 0 1 4 2 9 19 41 63 46 3 0 0 0 0 0 0 0 0 0 0 0
0 0 0 0 0 1 20 32 0 0 2 249 125 103 0 0 0 0 0 3 2 1 2 1 0 0 0 0 0 0 1 0 0 18 24 35 12 0 0 0 0 0 0 0 0 0 0 0 0
0 0 0 0 0 0 0 0 0 0 0 193 162 34 0 0 0 0 0 2 0 1 1 3 2 0 0 0 0 0 0 19 25 27 1 5 0 0 0 0 0 0 0 0 0 0 0 0 0
0 0 0 0 0 0 0 0 0 0 0 87 188 15 2 0 0 0 0 1 0 2 2 2 0 0 0 0 0 0 0 19 18 45 8 0 0 0 0 0 0 0 0 0 0 0 0 0 0
0 0 0 0 0 0 0 0 0 7 79 41 192 60 19 0 0 0 0 1 1 1 0 2 2 0 0 0 0 0 11 3 25 72 83 25 36 3 0 2 1 0 0 0 0 0 0 0 0
0 0 0 0 0 0 0 0 6 17 175 114 221 89 5 0 0 0 0 1 2 1 1 2 0 0 0 0 0 0 4 0 11 15 53 89 114 113 77 32 55 28 3 0 0 0 0 0 0
0 0 0 0 0 0 0 0 1 0 0 128 221 97 1 0 0 0 0 0 1 1 1 0 0 0 0 0 0 0 0 0 0 6 14 68 106 138 108 70 71 73 29 0 0 0 0 0 0
0 0 0 0 2 13 4 0 1 4 0 119 126 77 11 0 0 0 0 0 0 1 0 0 0 0 0 0 0 0 0 0 0 3 0 6 10 42 118 90 64 71 37 0 0 0 0 0 0
0 0 0 0 0 11 0 9 20 0 13 78 64 175 36 0 0 0 0 0 1 0 0 0 0 0 0 0 0 0 0 0 0 5 2 0 21 77 45 20 83 50 27 0 0 0 0 0 0
0 0 0 0 0 1 4 0 6 14 0 28 70 117 58 1 0 0 0 0 0 1 0 0 0 0 0 0 0 0 0 0 0 0 0 0 0 0 17 17 54 57 24 7 0 0 0 0 0
0 0 0 0 0 0 1 0 0 2 0 3 54 115 48 6 0 0 0 0 0 0 0 0 0 0 0 0 0 0 0 0 0 0 0 0 0 0 0 5 62 71 7 0 0 0 0 0 0
0 0 0 0 0 0 0 0 0 3 0 0 8 88 85 13 1 0 0 0 0 0 0 0 0 0 0 0 0 0 0 0 0 0 0 0 0 0 15 70 64 27 18 4 0 0 0 0 0
0 0 0 0 0 0 0 0 0 0 0 0 2 46 75 61 11 0 0 0 0 0 0 0 0 0 0 0 0 0 0 0 0 0 0 0 0 0 0 49 85 48 31 23 9 0 0 0 0
0 0 0 0 0 0 0 0 0 0 0 0 2 3 46 74 41 0 0 0 0 0 0 0 0 0 0 0 0 0 0 0 0 0 0 0 0 0 0 4 48 31 25 21 6 0 0 0 0
0 0 0 0 0 0 0 0 0 0 0 0 0 0 4 57 86 62 0 0 0 0 0 0 0 0 0 0 0 0 0 0 0 0 0 0 0 6 30 27 63 45 5 1 11 0 0 0 0
0 0 0 0 0 0 0 0 0 0 0 0 0 0 0 14 102 139 79 1 0 0 0 0 0 0 0 0 0 0 0 0 11 84 0 0 0 2 29 32 57 28 4 14 0 0 0 0 0
0 0 0 0 0 0 0 0 0 0 0 0 0 0 0 1 40 123 131 101 29 0 0 0 0 0 0 0 0 0 0 7 33 82 59 35 21 72 88 79 69 42 30 1 0 0 0 0 0
0 0 1 3 1 0 0 0 0 0 0 0 0 0 0 0 0 54 122 131 100 77 15 0 10 10 0 0 6 18 43 69 93 80 70 20 0 5 15 15 5 3 0 0 0 0 0 0 0
0 0 0 0 0 0 0 0 0 0 0 0 0 0 1 2 0 0 84 171 152 135 115 85 23 29 45 5 13 15 27 59 112 147 91 58 1 2 0 14 1 0 0 0 0 0 0 0 0

GFSSGP_con_mlcape_063.txt.gz
CAPE
0 0 0 0 0 0 0 0 0 0 0 22 87 102 175 318 337 202 555 671 815 1114 995 170 72 55 18 56 549 914 854 726 578 403 257 178 97 64 27 12 42 39 11 8 10 6 17 7 3
0 0 0 0 0 0 0 0 0 0 0 85 209 419 301 362 616 1008 713 469 841 1026 975 296 129 45 27 13 192 820 829 651 535 346 221 129 89 26 11 12 54 56 11 7 5 1 1 4 1
0 0 0 0 0 0 0 0 0 3 151 103 447 415 358 288 604 1005 1315 979 707 776 744 478 155 23 13 1 61 677 865 480 543 289 177 126 95 24 0 25 48 45 6 0 0 0 0 0 0
0 0 0 0 0 0 0 0 0 0 40 233 438 309 452 395 933 776 1021 898 678 441 435 627 322 42 19 54 103 444 567 525 455 274 179 162 107 11 0 0 36 32 0 0 0 0 0 0 0
0 0 0 0 0 0 0 0 0 16 63 74 258 137 102 566 823 917 1089 734 517 234 251 188 42 117 7 145 243 216 310 373 379 292 248 227 115 1 0 0 0 0 0 0 0 0 0 0 0
0 0 0 0 0 0 0 0 0 8 30 49 204 185 303 472 461 657 1114 934 609 519 490 362 12 4 135 166 7 12 38 269 334 381 321 217 93 3 0 0 0 0 0 0 0 0 0 0 0
0 0 0 0 0 0 0 0 4 7 7 30 147 178 130 9 101 302 683 828 890 615 508 357 150 289 89 15 0 0 2 199 304 327 316 190 20 0 0 0 0 0 0 0 0 0 0 0 0
0 0 0 0 0 0 0 13 21 0 5 122 365 15 2 0 123 201 407 168 348 57 202 262 141 142 17 19 4 0 0 132 264 300 280 116 0 0 0 0 0 0 0 0 0 0 0 0 0
0 0 0 0 0 0 0 12 4 0 0 90 174 53 13 10 91 183 226 419 368 264 174 254 112 41 2 0 0 0 4 85 198 183 154 103 4 0 0 0 0 0 0 0 0 0 0 0 0
0 0 0 0 0 0 0 9 32 1 3 10 29 62 60 16 77 32 9 186 274 340 248 164 44 12 2 1 0 0 3 36 64 115 128 100 1 0 0 0 0 0 0 0 0 0 0 0 0
0 0 0 0 0 0 0 1 0 20 0 0 0 0 41 0 0 0 0 0 6 45 59 18 7 3 3 3 4 0 0 0 8 43 110 22 0 0 0 0 0 0 0 0 0 0 0 0 0
0 0 0 0 0 0 0 0 0 7 0 1 0 15 2 0 0 0 0 0 0 1 2 1 1 3 4 6 1 7 32 63 62 73 90 26 1 0 0 0 0 0 0 0 0 0 0 0 0
0 0 0 0 0 0 0 0 0 0 0 53 62 15 0 0 0 0 0 2 1 1 1 0 2 2 2 3 6 9 8 22 60 61 66 20 0 0 0 0 0 0 0 0 0 0 0 0 0
0 0 0 0 0 0 0 0 0 0 19 40 21 6 0 0 0 0 0 1 1 1 1 0 1 0 0 0 0 0 0 21 39 44 60 4 0 0 0 0 0 0 0 0 0 0 0 0 0
0 0 0 0 0 0 0 0 0 0 2 12 22 4 0 0 0 0 0 1 0 1 1 0 0 0 0 0 9 0 2 9 39 37 49 4 0 0 0 0 0 0 0 0 0 0 0 0 0
0 0 0 0 0 0 0 0 0 0 0 7 0 0 0 0 0 0 0 0 1 0 2 2 3 1 0 0 0 0 22 31 47 68 53 9 0 0 0 0 0 0 0 0 0 0 0 0 0
0 0 0 0 0 0 0 0 0 0 0 4 0 0 0 0 0 0 0 1 0 0 1 2 1 0 0 0 1 6 13 29 50 68 50 26 12 3 0 0 0 0 0 0 0 0 0 0 0
0 0 0 0 0 0 0 0 0 0 3 14 0 0 0 0 0 0 1 0 1 1 1 1 2 1 0 0 1 8 7 10 30 52 43 46 31 20 9 19 17 0 0 0 0 0 0 0 0
0 0 0 0 0 0 0 0 0 0 4 9 16 25 8 0 0 0 1 0 0 0 1 0 1 0 0 0 0 10 15 9 7 27 60 98 106 124 119 110 63 73 77 45 2 0 0 0 0
0 0 0 0 0 0 0 2 0 0 0 0 0 55 25 0 0 0 0 1 0 0 1 1 0 0 0 0 0 0 0 0 1 6 21 21 52 70 110 88 70 48 47 14 0 0 0 0 0
0 0 0 0 0 0 0 0 0 0 0 0 0 29 17 5 0 0 0 0 1 0 1 1 0 0 0 0 0 0 0 0 0 0 2 4 14 23 31 20 45 14 15 30 7 0 0 0 0
0 0 0 0 0 0 0 0 0 0 0 0 0 18 8 16 0 0 0 0 0 0 0 1 0 0 0 0 0 0 0 0 0 0 0 0 12 5 0 2 26 14 0 6 2 0 0 0 0
0 0 0 0 0 0 0 0 0 0 0 3 0 0 11 5 11 0 0 0 0 0 0 0 0 0 0 0 0 0 0 0 0 0 0 0 0 0 0 0 0 0 0 11 9 0 0 0 0
0 0 0 0 0 0 0 0 0 0 0 0 0 0 2 0 13 0 0 0 0 0 0 0 0 0 0 0 0 0 0 0 0 0 0 0 0 0 0 0 0 0 1 17 21 0 0 0 0
0 0 0 0 0 0 0 0 0 0 0 0 0 0 0 1 5 10 0 0 0 0 0 0 0 0 0 0 0 0 0 0 0 0 0 0 0 0 0 0 0 0 1 43 23 0 0 0 0
0 0 0 0 0 0 0 0 0 0 0 0 0 0 0 0 1 16 3 0 0 0 0 0 0 0 0 0 0 0 0 0 0 0 0 0 0 0 0 0 0 0 0 0 0 0 0 1 0
0 0 0 0 0 0 0 0 0 0 0 0 0 0 0 0 0 7 2 0 0 0 0 0 0 0 0 0 0 0 0 0 0 0 0 0 0 0 0 0 0 0 0 0 0 42 22 0 0
0 0 0 0 0 0 0 0 0 0 0 0 0 0 0 0 2 13 4 0 0 0 0 0 0 0 0 0 0 0 0 0 0 0 0 0 0 0 0 0 0 0 0 0 19 35 0 0 0
0 0 0 0 0 0 0 0 0 0 0 0 0 0 0 0 8 22 32 8 0 0 0 0 0 0 0 0 0 0 0 0 0 0 0 1 8 1 0 2 7 14 4 6 0 0 0 0 0
0 0 0 0 0 0 0 0 0 0 0 0 0 0 0 0 0 3 24 50 26 0 0 0 0 0 0 0 0 0 0 0 0 0 9 34 9 11 46 0 8 0 0 0 0 0 0 0 0

GFSSGP_con_mlcape_066.txt.gz
CAPE
0 0 0 0 0 0 0 0 0 0 0 0 21 28 44 127 158 93 448 690 982 1249 1063 691 490 477 431 346 623 739 979 774 656 610 475 395 327 121 84 84 59 21 8 5 3 2 4 4 4
0 0 0 0 0 0 0 0 0 0 0 0 120 184 110 201 442 800 694 751 1143 1335 707 533 338 273 261 178 68 299 739 741 592 481 336 277 116 73 110 108 61 47 27 16 7 16 7 3 0
0 0 0 0 0 0 0 0 0 0 0 11 128 156 170 149 464 811 1205 910 1164 1274 682 414 443 283 194 138 105 122 254 553 320 272 254 195 87 103 131 117 97 101 127 133 132 52 9 0 0
0 0 0 0 0 0 0 0 0 0 0 48 207 121 223 189 592 797 909 866 1110 1138 866 568 306 268 95 69 140 225 189 226 391 195 197 138 82 133 102 50 33 3 0 5 6 42 0 0 0
0 0 0 0 0 0 0 0 0 0 1 3 38 20 19 171 637 660 794 890 909 1117 846 574 317 381 194 169 141 100 24 237 326 191 192 113 90 154 63 34 0 0 0 0 3 0 0 0 0
0 0 0 0 0 0 0 0 0 0 0 0 7 2 52 241 472 435 739 918 601 594 616 682 304 367 124 148 97 75 164 229 348 173 193 92 50 123 66 3 0 0 0 0 0 0 0 0 0
0 0 0 0 0 0 0 0 0 0 0 0 3 3 72 107 63 283 711 1000 771 327 437 364 270 280 142 26 116 69 28 141 272 230 139 72 67 77 14 0 0 0 0 0 0 0 0 0 0
0 0 0 0 0 0 0 0 0 0 0 24 165 6 0 0 59 195 595 511 536 608 532 361 130 83 3 3 6 5 0 12 180 275 152 92 51 0 0 0 0 0 0 0 0 0 0 0 0
0 0 0 0 0 0 0 0 0 0 3 13 126 75 10 0 78 251 426 87 157 94 307 178 43 4 3 0 2 2 47 49 210 222 170 82 0 0 0 0 0 0 0 0 0 0 0 0 0
0 0 0 0 0 0 0 0 0 0 0 10 45 36 24 12 23 74 153 347 238 275 203 74 28 29 4 6 3 0 28 33 56 143 165 30 0 0 0 0 0 0 0 0 0 0 0 0 0
0 0 0 0 0 0 0 0 0 0 0 5 0 1 17 0 1 0 0 28 70 73 87 67 20 2 2 1 0 0 11 7 57 121 122 1 0 0 0 0 0 0 0 0 0 0 0 0 0
0 0 0 0 0 0 0 0 0 0 0 0 1 8 4 0 0 0 0 0 12 23 46 6 2 3 1 0 0 0 0 7 15 38 97 0 0 0 0 0 0 0 0 0 0 0 0 0 0
0 0 0 0 0 0 0 0 0 0 0 0 24 39 1 0 0 0 0 1 1 14 1 0 4 3 6 2 0 0 0 0 1 0 54 1 0 0 0 0 0 0 0 0 0 0 0 0 0
0 0 0 0 0 0 0 0 0 0 0 0 8 25 0 0 0 0 0 0 0 4 0 1 0 4 4 3 3 2 25 0 9 2 37 14 0 0 0 0 0 0 0 0 0 0 0 0 0
0 0 0 0 0 0 0 0 0 0 0 0 0 11 0 0 0 0 0 1 0 1 0 0 1 1 0 4 6 13 21 1 25 37 9 5 0 0 0 0 0 0 0 0 0 0 0 0 0
0 0 0 0 0 0 0 0 0 0 0 0 0 0 0 0 0 0 0 0 0 0 0 1 1 0 0 19 0 1 27 38 41 15 11 2 1 0 0 0 0 0 0 0 0 0 0 0 0
0 0 0 0 0 0 0 0 0 0 0 0 0 0 0 0 0 0 0 0 0 0 0 1 1 0 0 0 0 0 5 5 4 28 37 19 12 1 0 0 0 0 0 0 0 0 0 0 0
0 0 0 0 0 0 0 0 0 0 0 0 0 0 0 0 0 0 0 1 0 0 2 1 1 1 1 1 0 0 0 0 3 24 43 23 13 1 0 0 0 0 0 0 0 0 0 0 0
0 0 0 0 0 0 0 0 0 0 0 0 0 0 0 0 0 0 1 1 1 0 0 0 0 2 2 0 1 0 0 0 4 34 36 27 17 15 5 0 0 1 1 8 3 0 0 0 0
0 0 0 0 0 0 0 0 0 0 0 0 0 0 0 0 0 0 1 2 1 0 0 0 1 0 0 0 0 0 0 0 5 11 28 31 36 30 41 14 45 81 90 52 20 4 0 0 0
0 0 0 0 0 0 0 0 0 0 0 0 0 0 0 0 0 0 0 0 2 0 0 0 0 0 0 0 0 0 0 0 7 23 21 38 74 84 89 105 68 73 81 114 54 2 7 3 0
0 0 0 0 0 0 0 0 0 0 0 0 0 0 0 0 0 0 0 0 0 0 0 0 0 0 0 0 0 0 0 5 0 0 0 18 28 35 44 64 73 69 62 61 28 1 0 0 0
0 0 0 0 0 0 0 0 0 0 0 0 0 0 0 0 0 0 0 0 0 0 0 0 0 0 0 0 0 0 0 0 0 0 0 0 0 2 1 17 5 0 19 43 29 14 0 0 0
0 0 0 0 0 0 0 0 0 0 0 0 0 0 0 0 0 0 0 0 0 0 0 1 1 0 0 0 0 0 0 0 0 0 0 0 0 0 0 0 0 1 0 0 1 0 0 0 0
0 0 0 0 0 0 0 0 0 0 0 0 0 0 0 0 0 0 0 0 0 0 0 0 0 0 0 0 0 0 0 0 0 0 0 0 0 0 0 0 0 0 0 0 0 0 0 0 0
0 0 0 0 0 0 0 0 0 0 0 0 0 0 0 0 0 0 0 0 0 0 0 0 0 0 0 0 0 0 0 0 0 0 0 0 0 0 0 0 0 0 0 0 0 0 0 0 0
0 0 0 0 0 0 0 0 0 0 0 0 0 0 0 0 0 0 0 0 0 0 0 0 0 0 0 0 0 0 0 0 0 0 0 0 0 0 0 0 0 0 0 0 0 1 0 0 3
0 0 0 0 0 0 0 0 0 0 0 0 0 0 0 0 0 0 0 0 0 0 0 0 0 0 0 0 0 0 0 0 0 0 0 0 0 0 0 0 0 0 0 0 0 3 3 4 0
0 0 0 0 0 0 0 0 0 0 0 0 0 0 0 0 0 0 0 0 0 0 0 0 0 0 0 0 0 0 0 0 0 0 0 0 0 0 0 0 0 0 0 0 0 0 0 0 0
0 0 0 0 0 0 0 0 0 0 0 0 0 0 0 0 0 0 0 0 0 0 0 0 0 0 0 0 0 0 0 0 0 0 0 0 0 0 0 0 0 0 3 1 0 0 0 0 0

GFSSGP_con_mlcape_069.txt.gz
CAPE
0 0 0 0 0 0 0 0 0 0 0 0 0 0 3 40 49 37 336 715 1079 1302 1371 1194 931 1099 1313 1507 1420 1251 1147 983 699 553 631 586 617 500 303 192 153 90 28 38 42 37 14 9 1
0 0 0 0 0 0 0 0 0 0 0 0 11 96 54 20 246 642 663 754 1307 1366 1317 1232 1027 1211 1445 1486 1469 1348 1277 1067 724 758 696 566 455 309 203 127 19 3 0 9 13 17 18 9 0
0 0 0 0 0 0 0 0 0 0 0 0 13 85 121 18 229 653 1013 772 1325 1338 1182 1015 598 499 1393 1442 1364 1402 1292 1058 834 694 607 381 383 287 177 100 29 6 3 5 8 7 13 10 0
0 0 0 0 0 0 0 0 0 0 0 0 46 35 116 57 379 687 884 916 1193 1021 581 985 898 900 1012 1477 1351 1235 1087 917 735 569 357 300 367 246 136 73 7 28 12 22 13 8 2 0 0
0 0 0 0 0 0 0 0 0 0 0 0 0 0 0 17 459 497 664 972 1142 998 818 804 757 745 704 939 1214 1108 872 637 488 308 205 320 235 140 96 127 161 100 190 100 4 2 0 0 0
0 0 0 0 0 0 0 0 0 0 0 0 0 1 7 82 294 276 583 891 677 746 769 746 572 612 725 659 519 483 645 593 422 287 217 258 143 98 86 15 2 45 63 81 0 0 0 0 0
0 0 0 0 0 0 0 0 0 0 0 0 17 9 56 39 43 105 512 933 558 514 553 611 631 648 511 540 337 236 365 474 351 206 244 152 93 86 35 0 0 89 69 0 0 0 0 0 0
0 0 0 0 0 0 0 0 0 0 0 0 43 13 4 8 35 176 421 568 747 553 595 410 570 405 389 372 199 54 138 195 125 205 190 130 125 81 0 0 0 98 49 0 0 0 0 0 0
0 0 0 0 0 0 0 0 0 0 0 2 72 58 28 9 93 214 294 259 214 104 215 451 391 151 123 151 144 30 8 20 34 129 184 141 164 27 0 0 16 48 0 0 0 0 0 0 0
0 0 0 0 0 0 0 0 0 0 0 0 10 37 14 17 53 103 263 176 223 225 241 206 109 25 66 8 1 0 1 0 5 81 121 133 60 1 0 0 0 5 2 0 0 0 0 0 0
0 0 0 0 0 0 0 0 0 0 0 0 0 0 3 8 22 31 21 72 144 155 177 70 69 40 29 52 30 19 7 0 3 35 122 57 14 0 0 0 0 10 0 0 0 0 0 0 0
0 0 0 0 0 0 0 0 0 0 0 0 0 0 2 6 12 20 2 22 73 131 83 82 23 33 8 18 3 21 9 32 43 56 116 36 0 0 0 0 0 0 4 11 0 0 0 0 0
0 0 0 0 0 0 0 0 0 0 0 0 0 0 0 0 0 0 0 6 10 48 67 1 8 1 1 1 0 3 0 0 26 97 62 0 0 0 0 0 0 0 0 0 0 0 0 0 0
0 0 0 0 0 0 0 0 0 0 0 0 0 0 0 0 0 0 0 0 2 5 9 1 3 3 3 2 1 2 3 32 57 82 38 3 0 0 0 0 0 0 0 0 0 0 0 0 0
0 0 0 0 0 0 0 0 0 0 0 0 0 0 0 0 0 0 1 0 2 1 1 3 3 2 1 0 0 0 3 14 37 61 34 0 0 0 0 0 0 0 0 0 0 0 0 0 0
0 0 0 0 0 0 0 0 0 0 0 0 0 0 0 0 0 0 0 0 0 2 4 4 2 2 4 0 0 4 17 16 45 52 52 16 6 0 0 0 0 0 0 0 0 0 0 0 0
0 0 0 0 0 0 0 0 0 0 0 0 0 0 0 0 0 0 2 0 0 0 2 2 1 1 3 1 3 2 32 21 17 15 13 17 0 0 0 0 0 0 0 0 0 0 0 0 0
0 0 0 0 0 0 0 0 0 0 0 0 0 0 0 0 0 0 0 0 0 0 0 1 0 1 0 1 1 0 8 26 12 7 14 19 9 1 0 0 0 0 1 0 0 0 0 0 0
0 0 0 0 0 0 0 0 0 0 0 0 0 0 0 0 0 0 1 1 0 1 1 2 0 1 0 0 3 0 0 0 16 4 17 21 12 1 0 0 0 0 0 0 4 2 0 0 0
0 0 0 0 0 0 0 0 0 0 0 0 0 0 0 0 0 0 0 0 1 2 3 2 1 1 1 1 0 0 0 0 0 0 0 1 22 10 0 0 0 0 0 6 4 8 16 4 0
0 0 0 0 0 0 0 0 0 0 0 0 0 0 0 0 0 0 0 1 0 1 2 2 2 1 1 1 0 1 0 0 0 0 0 0 21 21 17 1 7 7 7 13 30 23 21 84 2
0 0 0 0 0 0 0 0 0 0 0 0 0 0 0 0 0 0 0 0 0 0 0 3 2 1 3 0 0 0 0 0 0 0 0 0 15 30 47 44 53 64 103 123 63 52 84 89 84
0 0 0 0 0 0 0 0 0 0 0 0 0 0 0 0 0 0 0 0 0 0 0 3 3 2 0 1 0 0 1 0 0 0 0 0 1 27 57 72 58 57 50 72 82 81 45 54 68
0 0 0 0 0 0 0 0 0 0 0 0 0 0 0 0 0 0 0 0 0 0 0 3 0 0 0 0 0 0 0 0 0 0 0 0 2 12 21 34 43 55 45 43 74 64 57 26 10
0 0 0 0 0 0 0 0 0 0 0 0 0 0 0 0 0 0 0 0 0 0 0 0 1 0 1 1 0 0 0 0 0 0 0 0 0 0 1 19 26 21 3 6 10 9 12 15 16
0 0 0 0 0 0 0 0 0 0 0 0 0 0 0 0 0 0 0 0 0 0 0 0 0 0 2 1 0 0 0 0 0 0 0 0 0 0 0 0 0 1 0 4 0 3 6 14 12
0 0 0 0 0 0 0 0 0 0 0 0 0 0 0 0 0 0 0 0 0 0 0 0 0 0 1 1 0 0 0 0 0 0 0 0 0 0 0 0 0 0 1 1 0 3 0 10 19
0 0 0 0 0 0 0 0 0 0 0 0 0 0 0 0 0 0 0 0 0 0 0 0 0 0 0 0 0 0 0 0 0 0 0 0 0 0 0 0 0 0 0 0 0 0 0 1 6
0 0 0 0 0 0 0 0 0 0 0 0 0 0 0 0 0 0 0 0 0 0 0 0 0 0 0 0 0 0 0 0 0 0 0 0 0 0 0 0 0 0 0 0 0 0 0 2 4
0 0 0 0 0 0 0 0 0 0 0 0 0 0 0 0 0 0 0 0 0 0 0 0 0 0 0 0 0 0 0 0 0 0 0 0 0 0 0 0 0 0 0 0 0 0 0 0 1

GFSSGP_con_mlcape_072.txt.gz
CAPE
0 0 0 0 0 0 0 0 0 0 0 0 0 0 0 6 7 14 662 972 1197 1218 1410 1183 1084 1480 1606 1553 1339 1221 1227 1200 992 783 750 807 845 826 734 491 279 186 234 255 70 38 23 6 0
0 0 0 0 0 0 0 0 0 0 0 0 0 38 53 15 195 508 941 1121 1366 1363 1294 1281 899 957 1600 1659 1530 1457 1434 1291 1009 882 961 941 877 728 574 341 181 124 170 97 21 12 12 4 0
0 0 0 0 0 0 0 0 0 0 0 0 2 109 82 98 264 880 1065 1251 1464 1503 1206 1069 690 481 618 1366 1673 1660 1494 1280 1099 1037 1063 915 751 548 294 137 79 82 101 18 7 10 14 0 0
0 0 0 0 0 0 0 0 0 0 0 0 21 13 244 326 480 935 1095 1167 1439 1343 1302 918 393 222 307 528 1451 1641 1439 1297 1136 1072 971 863 668 429 140 46 5 9 0 10 14 20 9 0 0
0 0 0 0 0 0 0 0 0 0 0 8 28 1 35 235 626 709 845 1056 1366 1088 1036 125 689 413 458 444 1185 1484 1360 1208 1085 963 874 763 577 333 136 53 25 36 3 11 13 18 1 0 0
0 0 0 0 0 0 0 0 0 0 0 10 12 29 39 362 467 564 786 1002 1229 1018 1013 1221 712 602 768 565 1405 1243 1185 1076 985 851 797 705 453 208 115 103 115 59 0 7 3 1 0 0 0
0 0 0 0 0 0 0 0 0 0 0 0 31 11 170 385 413 390 710 1122 1054 523 708 1087 733 681 614 729 511 482 995 908 774 719 489 483 285 219 193 180 138 129 0 0 0 0 0 0 0
0 0 0 0 0 0 0 0 0 0 0 34 60 0 4 351 256 441 596 837 843 478 613 621 743 595 454 552 311 385 471 593 587 525 354 222 224 128 76 112 155 166 0 0 0 0 0 0 0
0 0 0 0 0 0 0 0 0 0 0 37 122 207 383 263 348 487 545 517 302 304 609 464 596 672 726 422 231 83 127 223 144 173 166 147 172 112 69 53 183 94 0 0 0 0 0 0 0
0 0 0 0 0 0 0 0 0 0 0 3 26 332 343 317 347 382 577 476 674 364 458 562 634 621 257 295 140 66 105 170 35 34 54 109 172 115 0 118 171 73 0 0 0 0 0 0 0
0 0 0 0 0 0 0 0 0 0 0 0 0 110 301 259 288 335 391 579 488 400 392 320 110 82 58 81 36 49 9 0 26 60 37 123 151 25 29 172 158 16 0 0 0 0 0 0 0
0 0 0 0 0 0 0 0 0 0 0 1 6 34 154 263 208 290 287 302 424 171 198 160 115 41 47 2 3 0 0 4 1 7 48 162 75 16 58 114 70 0 0 0 0 0 0 0 0
0 0 0 0 0 0 0 0 0 0 0 2 14 54 109 182 166 117 146 204 140 158 169 117 86 42 0 19 16 1 2 0 11 48 65 128 33 8 9 91 117 38 71 15 0 0 0 0 0
0 0 0 0 0 0 0 0 0 0 0 0 10 56 124 88 41 3 9 39 50 40 19 19 3 19 1 10 11 8 4 2 10 55 85 123 44 5 0 23 51 89 131 45 0 0 0 0 0
0 0 0 0 0 0 0 0 0 0 0 0 34 65 81 55 8 0 0 0 4 1 4 4 2 1 0 1 1 1 15 34 19 39 59 74 50 11 18 12 11 1 9 0 0 0 0 0 0
0 0 0 0 0 0 0 0 0 0 0 0 21 64 53 26 6 8 1 0 2 2 2 5 3 2 3 2 2 4 9 17 25 35 39 19 22 22 3 4 0 0 3 0 0 0 0 0 0
0 0 0 0 0 0 0 0 0 0 0 0 11 36 79 69 12 1 1 0 0 7 18 3 4 2 3 3 2 4 1 15 58 37 14 6 15 7 5 12 1 3 0 0 0 0 0 0 0
0 0 0 0 0 0 0 0 0 0 0 0 10 36 88 88 28 0 0 0 0 7 8 2 3 4 3 3 4 5 13 18 42 41 13 2 25 16 7 0 19 21 3 1 0 0 0 0 0
0 0 0 0 0 0 0 0 0 0 0 0 0 23 63 102 85 21 0 0 0 2 6 4 1 0 3 3 2 2 2 13 20 24 43 39 40 18 0 0 26 62 38 48 50 32 12 1 0
0 0 0 0 0 0 0 0 0 0 0 0 0 12 25 99 81 34 0 0 0 1 6 7 1 1 2 2 3 3 4 19 18 16 6 12 39 10 25 4 32 68 102 136 112 77 51 95 10
0 0 0 0 0 0 0 0 0 0 0 0 0 0 16 66 111 47 0 0 0 0 4 6 3 3 3 11 14 5 0 1 1 2 4 4 16 31 15 0 0 4 78 98 112 89 128 169 54
0 0 0 0 0 0 0 0 0 0 0 0 0 0 16 34 97 83 22 0 0 0 1 3 0 5 3 2 1 3 4 1 3 1 1 8 7 28 27 0 0 1 36 85 135 130 177 188 114
0 0 0 0 0 0 0 0 0 0 0 0 0 0 3 31 66 91 45 6 0 0 0 2 2 9 3 3 2 0 5 0 0 0 0 0 8 29 23 3 1 0 14 34 70 89 153 209 97
0 0 0 0 0 0 0 0 0 0 0 0 0 0 0 3 13 84 77 19 0 0 0 1 1 2 5 5 4 2 1 1 2 1 2 2 1 7 12 17 9 8 30 70 47 76 122 121 103
0 0 0 0 0 0 0 0 0 0 0 0 0 0 0 0 0 38 75 47 3 0 0 0 0 0 4 8 8 2 3 4 3 0 0 0 1 1 0 5 3 9 20 16 32 53 40 112 71
0 0 0 0 0 0 0 0 0 0 0 0 0 0 0 0 0 16 58 62 32 0 0 0 0 0 0 3 5 6 9 13 4 0 0 0 0 0 0 0 0 1 16 6 18 57 81 77 126
0 0 0 0 0 0 0 0 0 0 0 0 0 0 0 0 0 6 41 74 49 7 0 0 0 0 0 0 3 2 2 7 11 8 2 0 0 0 0 2 10 14 26 39 50 59 62 67 78
4 0 0 0 0 0 0 0 0 0 0 0 0 0 0 0 0 0 31 63 52 20 0 0 0 0 0 0 0 0 0 0 0 2 7 3 3 0 0 0 7 19 27 39 43 37 30 31 40
0 0 0 0 0 0 1 0 0 0 0 0 0 0 0 0 0 0 2 38 52 22 2 0 0 0 0 0 0 0 0 0 0 0 0 1 3 1 0 0 1 0 3 5 13 9 13 24 18
0 0 0 0 1 0 1 0 0 0 0 0 0 0 0 0 0 0 25 56 48 52 26 8 0 0 0 0 0 0 0 0 0 0 0 0 0 1 0 0 0 0 0 0 3 5 3 6 2